Date String (YYYY-MM-DD hh:mm:ss) UTC,Instrument flags,Ambient pressure (hPa),Sample flow (lpm),Bypass flow (lpm),Sample temperature (°C),Ambient temperature (°C),ASC tube jacket temperature (°C),LED temperature (°C),Box temperature (°C),Sample RH (%),Span deviation,Mass concentration (μg/m³),Mass concentration (μg/m³),Mass concentration (μg/m³)
DateTimeUTC,F1_M11,P_M11,Q1_M11,Q2_M11,T1_M11,T2_M11,T3_M11,T4_M11,T5_M11,U1_M11,ZSPAN_M11,X0_M11,X2_M11,X1_M11
2022-04-29 23:00:00,,0817.3,4.99,0.00,26.4,25.3,00.0,35.3,28.2,07.8,0000.0,0010.15,0003.56,0001.90
2022-04-29 23:01:00,,0817.2,5.02,0.00,26.4,25.3,00.0,35.3,28.2,08.1,0000.0,0009.18,0003.43,0001.86
2022-04-29 23:02:00,,0817.3,4.98,0.00,26.4,25.3,00.0,35.3,28.2,08.6,0000.0,0008.82,0003.33,0001.83
2022-04-29 23:03:00,,0817.1,5.02,0.00,26.4,25.3,00.0,35.3,28.2,08.9,0000.0,0008.81,0003.31,0001.83
2022-04-29 23:04:00,,0817.2,4.99,0.00,26.4,25.3,00.0,35.3,28.2,09.2,0000.0,0009.21,0003.26,0001.80
2022-04-29 23:05:00,,0817.3,5.00,0.00,26.4,25.3,00.0,35.3,28.2,09.1,0000.0,0009.81,0003.26,0001.75
2022-04-29 23:06:00,,0817.1,4.99,0.00,26.4,25.3,00.0,35.2,28.2,08.8,0000.0,0009.57,0003.23,0001.71
2022-04-29 23:07:00,,0817.1,5.02,0.00,26.4,25.3,00.0,35.2,28.2,08.4,0000.0,0009.61,0003.10,0001.65
2022-04-29 23:08:00,,0817.1,5.00,0.00,26.4,25.3,00.0,35.2,28.2,08.7,0000.0,0009.27,0002.91,0001.61
2022-04-29 23:09:00,,0817.1,5.00,0.00,26.3,25.3,00.0,35.2,28.2,08.9,0000.0,0008.72,0002.87,0001.59
2022-04-29 23:10:00,,0817.0,5.00,0.00,26.3,25.2,00.0,35.2,28.2,09.0,0000.0,0009.10,0002.91,0001.57
2022-04-29 23:11:00,,0816.8,5.01,0.00,26.3,25.2,00.0,35.2,28.1,08.8,0000.0,0009.80,0003.00,0001.55
2022-04-29 23:12:00,,0817.1,5.01,0.00,26.3,25.2,00.0,35.2,28.1,08.5,0000.0,0010.93,0003.16,0001.54
2022-04-29 23:13:00,,0817.2,4.99,0.00,26.3,25.2,00.0,35.2,28.1,08.3,0000.0,0011.45,0003.23,0001.54
2022-04-29 23:14:00,,0816.9,5.00,0.00,26.3,25.2,00.0,35.2,28.1,08.3,0000.0,0011.49,0003.25,0001.53
2022-04-29 23:15:00,,0816.9,5.00,0.00,26.3,25.2,00.0,35.2,28.1,08.2,0000.0,0011.31,0003.31,0001.55
2022-04-29 23:16:00,,0816.9,4.99,0.00,26.3,25.1,00.0,35.2,28.1,08.2,0000.0,0011.72,0003.36,0001.58
2022-04-29 23:17:00,,0817.0,5.02,0.00,26.3,25.1,00.0,35.2,28.1,08.2,0000.0,0012.17,0003.39,0001.62
2022-04-29 23:18:00,,0816.8,4.99,0.00,26.3,25.1,00.0,35.2,28.1,08.3,0000.0,0012.32,0003.41,0001.64
2022-04-29 23:19:00,,0817.0,4.99,0.00,26.3,25.1,00.0,35.2,28.0,08.1,0000.0,0012.58,0003.45,0001.66
2022-04-29 23:20:00,,0817.3,5.01,0.00,26.3,25.1,00.0,35.2,28.1,08.3,0000.0,0012.67,0003.46,0001.68
2022-04-29 23:21:00,,0817.4,4.99,0.00,26.3,25.2,00.0,35.2,28.1,08.2,0000.0,0013.28,0003.42,0001.68
2022-04-29 23:22:00,,0817.2,5.00,0.00,26.3,25.2,00.0,35.2,28.1,08.1,0000.0,0012.85,0003.32,0001.70
2022-04-29 23:23:00,,0817.1,5.00,0.00,26.3,25.2,00.0,35.2,28.1,07.9,0000.0,0011.63,0003.18,0001.70
2022-04-29 23:24:00,,0816.6,4.99,0.00,26.3,25.2,00.0,35.2,28.1,07.7,0000.0,0011.65,0003.22,0001.72
2022-04-29 23:25:00,,0816.5,5.00,0.00,26.3,25.2,00.0,35.2,28.0,07.6,0000.0,0014.20,0003.37,0001.77
2022-04-29 23:26:00,,0816.7,5.02,0.00,26.2,25.1,00.0,35.2,28.0,07.6,0000.0,0016.60,0003.50,0001.80
2022-04-29 23:27:00,,0816.8,4.99,0.00,26.2,25.1,00.0,35.2,28.0,07.4,0000.0,0016.60,0003.52,0001.81
2022-04-29 23:28:00,,0816.7,5.01,0.00,26.2,25.0,00.0,35.1,28.0,07.4,0000.0,0016.31,0003.46,0001.80
2022-04-29 23:29:00,,0817.0,4.99,0.00,26.2,25.0,00.0,35.1,28.0,07.3,0000.0,0015.66,0003.43,0001.80
2022-04-29 23:30:00,,0817.2,5.00,0.00,26.2,25.0,00.0,35.1,28.0,07.6,0000.0,0015.81,0003.44,0001.80
2022-04-29 23:31:00,,0817.0,4.99,0.00,26.2,25.0,00.0,35.1,28.0,07.6,0000.0,0016.52,0003.46,0001.81
2022-04-29 23:32:00,,0817.1,4.99,0.00,26.2,25.0,00.0,35.1,28.0,07.5,0000.0,0015.74,0003.50,0001.82
2022-04-29 23:33:00,,0817.3,5.02,0.00,26.2,25.1,00.0,35.1,28.0,07.7,0000.0,0015.63,0003.52,0001.81
2022-04-29 23:34:00,,0817.0,5.00,0.00,26.2,25.1,00.0,35.1,28.0,07.7,0000.0,0016.07,0003.57,0001.82
2022-04-29 23:35:00,,0817.1,5.00,0.00,26.2,25.0,00.0,35.1,28.0,07.8,0000.0,0015.76,0003.49,0001.80
2022-04-29 23:36:00,,0817.2,5.01,0.00,26.2,25.0,00.0,35.1,28.0,07.8,0000.0,0013.56,0003.31,0001.74
2022-04-29 23:37:00,,0817.2,4.99,0.00,26.2,25.0,00.0,35.1,28.0,07.9,0000.0,0011.80,0003.18,0001.70
2022-04-29 23:38:00,,0817.1,5.01,0.00,26.2,25.0,00.0,35.1,28.0,08.2,0000.0,0011.38,0003.09,0001.67
2022-04-29 23:39:00,,0817.2,5.00,0.00,26.2,25.0,00.0,35.1,27.9,08.5,0000.0,0012.06,0003.14,0001.68
2022-04-29 23:40:00,,0817.0,5.00,0.00,26.1,25.0,00.0,35.1,27.9,08.6,0000.0,0011.92,0003.16,0001.67
2022-04-29 23:41:00,,0817.1,5.02,0.00,26.1,24.9,00.0,35.1,27.9,08.6,0000.0,0012.35,0003.23,0001.67
2022-04-29 23:42:00,,0817.4,4.98,0.00,26.1,24.9,00.0,35.1,27.9,08.5,0000.0,0011.81,0003.27,0001.67
2022-04-29 23:43:00,,0817.5,5.02,0.00,26.1,24.9,00.0,35.0,27.9,08.8,0000.0,0011.51,0003.21,0001.65
2022-04-29 23:44:00,,0817.5,4.98,0.00,26.1,25.0,00.0,35.0,27.9,08.9,0000.0,0011.92,0003.22,0001.65
2022-04-29 23:45:00,,0817.4,5.01,0.00,26.1,25.0,00.0,35.0,27.9,09.5,0000.0,0011.31,0003.21,0001.63
2022-04-29 23:46:00,,0817.0,4.99,0.00,26.1,25.0,00.0,35.0,27.9,09.0,0000.0,0011.89,0003.22,0001.63
2022-04-29 23:47:00,,0816.9,5.00,0.00,26.1,25.0,00.0,35.0,27.9,08.4,0000.0,0012.64,0003.23,0001.64
2022-04-29 23:48:00,,0817.2,4.99,0.00,26.1,24.9,00.0,35.0,27.9,08.4,0000.0,0012.11,0003.25,0001.64
2022-04-29 23:49:00,,0817.3,5.02,0.00,26.1,24.9,00.0,35.0,27.9,08.4,0000.0,0012.15,0003.26,0001.63
2022-04-29 23:50:00,,0817.3,5.00,0.00,26.1,24.9,00.0,35.0,27.9,08.3,0000.0,0010.69,0003.22,0001.62
2022-04-29 23:51:00,,0817.3,5.00,0.00,26.1,24.9,00.0,35.0,27.9,08.1,0000.0,0010.45,0003.16,0001.60
2022-04-29 23:52:00,,0817.0,5.02,0.00,26.1,24.9,00.0,35.0,27.9,08.0,0000.0,0010.59,0003.17,0001.60
2022-04-29 23:53:00,,0817.1,4.98,0.00,26.0,24.8,00.0,35.0,27.8,07.9,0000.0,0011.52,0003.20,0001.59
2022-04-29 23:54:00,,0817.0,5.01,0.00,26.0,24.8,00.0,35.0,27.8,07.9,0000.0,0012.26,0003.32,0001.59
2022-04-29 23:55:00,,0817.2,4.99,0.00,26.0,24.8,00.0,35.0,27.8,08.0,0000.0,0012.25,0003.41,0001.61
2022-04-29 23:56:00,,0817.2,5.01,0.00,26.0,24.8,00.0,34.9,27.8,08.1,0000.0,0012.14,0003.42,0001.60
2022-04-29 23:57:00,,0816.9,5.00,0.00,26.0,24.8,00.0,34.9,27.8,08.2,0000.0,0011.91,0003.41,0001.59
2022-04-29 23:58:00,,0816.9,4.98,0.00,26.0,24.7,00.0,34.9,27.7,08.3,0000.0,0011.34,0003.48,0001.57
2022-04-29 23:59:00,,0817.1,5.02,0.00,26.0,24.7,00.0,34.9,27.7,08.7,0000.0,0013.00,0003.63,0001.58
